Location: Keewatin
(47.4004°N, 93.0827°W)
Time: 08:14:12
(UTC+00:00)

KKS-1 - Pass Details

Date: 26 February 2020
Orbit: 637 x 650 km, 98.3° (Epoch: 04 April)

Event Time Altitude Azimuth Distance (km) Brightness Sun altitude
Rises 11:55:11 0° 127° (SE) 2,948 ? -11.6°
Reaches altitude 10° 11:57:47 10° 112° (ESE) 2,040 ? -11.1°
Maximum altitude 12:01:09 22° 62° (ENE) 1,423 ? -10.5°
Drops below altitude 10° 12:04:32 10° 13° (NNE) 2,045 ? -10.0°
Sets 12:07:08 0° 358° (N) 2,958 ? -9.5°
